This demonstration page uses our WeatherBlox Daily Observations layout. Learn more.

Left ArrowRight Arrow

41.86663, -103.66717

Hourly Observations for September 19, 2021

Temp ( °F °C ) Dew Point ( °F °C ) Humidity (%) Winds ( mph kmh ) Pressure ( in mb ) Visibility ( mi km ) Precip ( " mm )
12:53 am 00:53 Clear 65 18.3 47 8.3 52 52 NNW 5 7 29.74 1007 10 16 N/A
1:53 am 01:53 Clear 64 17.8 47 8.3 54 54 N 7 11 29.74 1007 10 16 N/A
2:53 am 02:53 Clear 62 16.7 47 8.3 58 58 N 3 6 29.73 1007 10 16 N/A
3:53 am 03:53 Clear 65 18.3 44 6.7 47 47 W 7 11 29.72 1006 10 16 N/A
4:53 am 04:53 Clear 62 16.7 45 7.2 54 54 WNW 6 9 29.74 1007 10 16 N/A
5:53 am 05:53 Clear 58 14.4 43 6.1 58 58 N N/A 29.74 1007 10 16 N/A
6:53 am 06:53 Sunny 56 13.3 43 6.1 62 62 NE 3 6 29.75 1008 10 16 N/A
7:53 am 07:53 Sunny 65 18.3 44 6.7 47 47 N N/A 29.76 1008 10 16 N/A
8:53 am 08:53 Sunny 72 22.2 45 7.2 38 38 WNW 5 7 29.74 1007 10 16 N/A
9:53 am 09:53 Sunny 78 25.6 46 7.8 32 32 VRB 6 9 29.73 1007 10 16 N/A
10:53 am 10:53 Sunny 82 27.8 44 6.7 26 26 WNW 8 13 29.71 1006 10 16 N/A
11:53 am 11:53 Sunny 85 29.4 43 6.1 23 23 NW 13 20 29.67 1005 10 16 N/A
12:53 pm 12:53 Sunny 88 31.1 39 3.9 18 18 W 13 20 29.62 1003 10 16 N/A
1:53 pm 13:53 Sunny 90 32.2 36 2.2 15 15 W 18 30 29.60 1002 10 16 N/A
2:53 pm 14:53 Partly Cloudy 89 31.7 37 2.8 16 16 W 18 30 29.57 1002 10 16 N/A
3:53 pm 15:53 Partly Cloudy 88 31.1 37 2.8 16 16 WNW 13 20 29.55 1001 10 16 N/A
4:53 pm 16:53 Partly Cloudy 88 31.1 37 2.8 16 16 W 14 22 29.55 1001 10 16 N/A
5:53 pm 17:53 Sunny 84 28.9 39 3.9 20 20 WNW 5 7 29.55 1001 10 16 N/A
6:53 pm 18:53 Mostly Cloudy 81 27.2 39 3.9 22 22 S 8 13 29.55 1001 10 16 0.00 0.00
7:53 pm 19:53 Mostly Cloudy 76 24.4 43 6.1 31 31 N N/A 29.56 1001 10 16 N/A
8:36 pm 20:36 Mostly Cloudy with Nearby Thunderstorms 76 24.4 43 6.1 31 31 NNW 15 24 29.48 998 10 16 N/A
8:44 pm 20:44 Mostly Cloudy with Nearby Thunderstorms 72 22 45 7 38 38 NNW 33 54 29.55 1001 7 11 N/A
8:51 pm 20:51 Mostly Cloudy 66 19 46 8 49 49 NNW 29 46 29.61 1003 8 13 N/A
8:53 pm 20:53 Mostly Cloudy with Light Rain 65 18.3 48 8.9 54 54 NNW 29 46 29.65 1004 7 11 0.00 0.00
9:53 pm 21:53 Partly Cloudy 63 17.2 45 7.2 52 52 NNW 17 28 29.69 1006 10 16 0.00 0.00
10:53 pm 22:53 Partly Cloudy 61 16.1 46 7.8 58 58 NW 13 20 29.71 1006 10 16 N/A
11:53 pm 23:53 Partly Cloudy 59 15 47 8.3 64 64 WNW 7 11 29.75 1007 10 16 N/A

Powered by AerisWeather